Regional Weather Roundup
Issued by NWS Sterling, VA

Home | Current Version | Previous Version | Graphics & Text | Print | Product List | Glossary On
Versions: 1 2 3 4 5 6 7 8 9 10 11 12 13 14 15 16 17 18 19 20 21 22 23 24 25 26 27 28 29 30 31 32 33 34 35 36 37 38 39 40 41 42 43 44 45 46 47 48 49 50
000
ASUS41 KLWX 060710
RWRLWX

REGIONAL WEATHER ROUNDUP
NATIONAL WEATHER SERVICE BALTIMORE MD/WASHINGTON DC
200 AM EST SAT FEB 06 2016

Note: "FAIR" indicates few or no clouds below 12,000 feet
with no significant weather and/or obstructions to visibility.
 TC=TEMPERATURE CELSIUS

 * =Non NWS site. Station does not report precipitation (e.g. rain,
    snow, etc.), thunder, or fog.

DCZ001-MDZ009-015-VAZ040>042-051-053>054-060800-
WASHINGTON METRO

CITY           SKY/WX    TMP DP  RH WIND       PRES   REMARKS
WASHINGTON NAT FAIR      33  22  63 CALM      30.42R
DULLES         FAIR      25  19  78 CALM      30.40S
ANDREWS AFB    CLOUDY    27  20  75 CALM      30.39S
FT BELVOIR     FAIR      24  21  87 CALM      30.41F
QUANTICO       FAIR      29  23  78 NW5       30.43S
COLLEGE PARK*  FAIR      28  23  80 CALM      30.41S
LEESBURG*      FAIR      27  25  93 W5        30.41S
MANASSAS*      FAIR      21  21 100 CALM      30.41F
GAITHERSBURG*  PTCLDY    25  16  68 SE3       30.43R

$$

MDZ006>007-011-014-060800-
BALTIMORE METRO

CITY           SKY/WX    TMP DP  RH WIND       PRES   REMARKS
BWI AIRPORT    PTCLDY    27  20  75 CALM      30.40R
MD SCIENCE CTR   N/A     33  18  53 MISG      30.40R
MARTIN STATE   CLOUDY    30  23  74 CALM      30.42R
ANNAPOLIS      CLOUDY    30  23  75 CALM      30.41R
FORT MEADE*    PTCLDY    23  21  93 CALM      30.43S

$$

MDZ012-015-019>023-060800-
MARYLAND EASTERN SHORE

CITY           SKY/WX    TMP DP  RH WIND       PRES   REMARKS
OCEAN CITY     CLEAR     29  22  75 NW5       30.39S
SALISBURY      PTCLDY    27  25  92 CALM      30.40R
BAY BRIDGE AP*   N/A     32  21  64 CALM      30.41S
CAMBRIDGE*     CLOUDY    32  23  69 CALM      30.40R
EASTON*        CLOUDY    31  25  77 CALM      30.44R

$$

MDZ017>025-060800-
SOUTHERN MARYLAND

CITY           SKY/WX    TMP DP  RH WIND       PRES   REMARKS
PATUXENT RIVER CLEAR     26  21  81 NW6       30.41R
ST INIGOES     CLEAR     28  25  88 CALM      30.41R
LEONARDTOWN*   CLEAR     27  23  86 CALM      30.42S

$$

MDZ003>005-060800-
NORTH CENTRAL MARYLAND

CITY           SKY/WX    TMP DP  RH WIND       PRES   REMARKS
FREDERICK*     PTCLDY    23  23 100 SE3       30.43S
HAGERSTOWN APT CLOUDY    28  16  60 S3        30.37S
WESTMINSTER*   PTCLDY    28  21  74 CALM      30.36S

$$

MDZ501>502-060800-
WESTERN MARYLAND

CITY           SKY/WX    TMP DP  RH WIND       PRES   REMARKS
OAKLAND*       CLOUDY    21  14  73 SW6       30.25S
CUMBERLAND*    CLOUDY    25  21  86 CALM      30.41F

$$

VAZ025>031-060800-
SHENANDOAH VALLEY

CITY           SKY/WX    TMP DP  RH WIND       PRES   REMARKS
WINCHESTER*    FAIR      27  19  74 CALM      30.37F
FRONT ROYAL*   FAIR      28  19  69 CALM      30.36F
LURAY*         FAIR      25  21  86 CALM      30.37S
NEW MARKET*    FAIR      24  20  83 CALM      30.36F
STAUNTON*      FAIR      26  22  83 CALM      30.39R
WAYNESBORO*    FAIR      23  16  74 CALM      30.35S

$$

WVZ021-048>050-054>055-060800-
EASTERN WEST VIRGINIA PANHANDLE

CITY           SKY/WX    TMP DP  RH WIND       PRES   REMARKS
MARTINSBURG    FAIR      23  16  74 CALM      30.38F
PETERSBURG*    FAIR      24  20  86 CALM      30.38S

$$

VAZ036>039-050-060800-
CENTRAL FOOTHILLS

CITY           SKY/WX    TMP DP  RH WIND       PRES   REMARKS
CHARLOTTESVILL FAIR      27  15  61 CALM      30.38S
CULPEPER*      FAIR      23  20  90 CALM      30.41F
ORANGE*        FAIR      27  23  86 CALM      30.41F
GORDONSVILLE*  FAIR      24  22  92 CALM      30.39S
WARRENTON*     FAIR      22  21  95 CALM      30.40S

$$

VAZ055>057-060800-
NORTH AND CENTRAL PIEDMONT

CITY           SKY/WX    TMP DP  RH WIND       PRES   REMARKS
FREDERICKSBRG* FAIR      25  22  87 CALM      30.42S
STAFFORD*      FAIR      22  20  93 NW3       30.46S

$$

NCZ024-NYZ072-PAZ021-071-VAZ022-071-060800-
OTHER REGIONAL OBSERVATIONS

CITY           SKY/WX    TMP DP  RH WIND       PRES   REMARKS
NEW YORK CITY  CLEAR     31  16  54 CALM      30.38R
PHILADELPHIA   PTCLDY    31  19  61 NW3       30.39S
PITTSBURGH     CLOUDY    27  17  66 S3        30.29F
ROANOKE        FAIR      28  16  60 N5        30.40S
RICHMOND       FAIR      26  22  84 CALM      30.42R
RALEIGH        PTCLDY    28  24  85 CALM      30.40F

$$

ANZ530>537-060800-
MARINE OBSERVATIONS

STATION/POSITION TIME  TEMP    WIND        PRES
                       AIR SEA DIR/SP/G
                 (UTC) (F)     (DEG/KT/KT) (MB)
THOMAS PT LIGHT  0700   33 40  330/  6/  7 1030.3R
BALT KEY BRIDGE  0600   34     270/  5/  5 1029.5F
COVE POINT       0600   36     360/ 11/ 13 1030.1S
LEWISETTA        0600   37 42  360/  6/  8 1029.5R
SOLOMONS ISLAND  0600   33 41  340/  3/  4   N/A

$$




USA.gov is the U.S. government's official web portal to all federal, state and local government web resources and services.